Trinity Center, CA

6:05 AM PDT on March 26, 2017 (GMT -0700)
Trinity Center

Weather History for KO86 - May, 2014

Change the Weather History Date:

Sunday, May 4, 2014

  Actual Average (KMHS) Record (KMHS)
Temperature  
Mean Temperature 52 °F -  
Max Temperature 64 °F 61 °F 86 °F (1992)
Min Temperature 41 °F 35 °F 25 °F (1999)
Degree Days  
Heating Degree Days 12    
Growing Degree Days 2 (Base 50)    
Moisture  
Dew Point 37 °F    
Average Humidity 58    
Maximum Humidity 87    
Minimum Humidity 37    
Precipitation  
Precipitation 0.00 in - - ()
Sea Level Pressure  
Sea Level Pressure 29.96 in    
Wind  
Wind Speed 7 mph (SW)    
Max Wind Speed 20 mph    
Max Gust Speed 32 mph    
Visibility 10 miles    
Events      
Averages and records for this station are not official NWS values.
T = Trace of Precipitation, MM = Missing Value Source: NWS Daily Summary

Daily Weather History Graph

Daily Weather History Graph

Search for Another Location

Airport or City:

Trip Planner

Search our weather history database for the weather conditions in past years. The results will help you decide how hot, cold, wet, or windy it might be!

Date:

Astronomy

May. 04, 2014 Rise Set
Actual Time 6:04 AM PDT 8:10 PM PDT
Civil Twilight 5:34 AM PDT 8:40 PM PDT
Nautical Twilight 4:57 AM PDT 9:18 PM PDT
Astronomical Twilight 4:17 AM PDT 9:58 PM PDT
Moon 10:33 AM PDT (5/4) 12:19 AM PDT (5/4)
Length of Visible Light 15h 06m
Length of Day
14h 05m
Waxing Crescent, 28% of the Moon is Illuminated
May 4
Waxing Crescent
May 6
First Quarter
May 14
Full
May 21
Last Quarter
May 28
New

Hourly Weather History & Observations

Time (PDT) Temp. Windchill Dew Point Humidity Pressure Visibility Wind Dir Wind Speed Gust Speed Precip Events Conditions
12:10 AM 53.6 °F - 37.4 °F 54% 29.95 in 10.0 mi WSW 3.5 mph - N/A   Clear
12:30 AM 53.6 °F - 37.4 °F 54% 29.95 in 10.0 mi SSW 5.8 mph - N/A   Clear
12:50 AM 53.6 °F - 37.4 °F 54% 29.96 in 10.0 mi SSW 5.8 mph - N/A   Clear
1:10 AM 50.0 °F - 37.4 °F 62% 29.96 in 10.0 mi WNW 3.5 mph - N/A   Clear
1:30 AM 48.2 °F - 37.4 °F 66% 29.96 in 10.0 mi West 5.8 mph - N/A   Clear
1:50 AM 48.2 °F - 37.4 °F 66% 29.96 in 10.0 mi West 5.8 mph - N/A   Clear
2:10 AM 46.4 °F 44.3 °F 37.4 °F 71% 29.96 in 10.0 mi West 4.6 mph - N/A   Clear
2:30 AM 46.4 °F 44.3 °F 37.4 °F 71% 29.96 in 10.0 mi West 4.6 mph - N/A   Clear
2:50 AM 44.6 °F 42.2 °F 37.4 °F 76% 29.96 in 10.0 mi West 4.6 mph - N/A   Clear
3:10 AM 44.6 °F 41.4 °F 37.4 °F 76% 29.97 in 10.0 mi West 5.8 mph - N/A   Clear
3:30 AM 44.6 °F 41.4 °F 37.4 °F 76% 29.97 in 10.0 mi West 5.8 mph - N/A   Clear
3:50 AM 42.8 °F 39.3 °F 37.4 °F 81% 29.98 in 10.0 mi West 5.8 mph - N/A   Clear
4:10 AM 42.8 °F 40.1 °F 37.4 °F 81% 29.98 in 10.0 mi West 4.6 mph - N/A   Clear
4:30 AM 42.8 °F 39.3 °F 37.4 °F 81% 29.98 in 10.0 mi WNW 5.8 mph - N/A   Clear
4:50 AM 42.8 °F 40.1 °F 37.4 °F 81% 29.98 in 10.0 mi West 4.6 mph - N/A   Clear
5:10 AM 42.8 °F 40.1 °F 37.4 °F 81% 29.98 in 10.0 mi WNW 4.6 mph - N/A   Clear
5:30 AM 41.0 °F 39.0 °F 35.6 °F 81% 29.98 in 10.0 mi West 3.5 mph - N/A   Clear
5:50 AM 41.0 °F 38.0 °F 35.6 °F 81% 29.98 in 10.0 mi West 4.6 mph - N/A   Clear
6:10 AM 41.0 °F 39.0 °F 35.6 °F 81% 29.98 in 10.0 mi West 3.5 mph - N/A   Clear
6:30 AM 41.0 °F 38.0 °F 35.6 °F 81% 29.99 in 10.0 mi West 4.6 mph - N/A   Clear
6:50 AM 41.0 °F 39.0 °F 37.4 °F 87% 29.99 in 10.0 mi West 3.5 mph - N/A   Clear
7:10 AM 44.6 °F - 37.4 °F 76% 29.99 in 10.0 mi Calm Calm - N/A   Clear
7:30 AM 46.4 °F - 37.4 °F 71% 30.00 in 10.0 mi Calm Calm - N/A   Scattered Clouds
7:50 AM 46.4 °F - 39.2 °F 76% 30.00 in 10.0 mi Calm Calm - N/A   Mostly Cloudy
8:10 AM 48.2 °F - 39.2 °F 71% 29.99 in 10.0 mi Calm Calm - N/A   Mostly Cloudy
8:30 AM 50.0 °F - 39.2 °F 66% 29.99 in 10.0 mi Calm Calm - N/A   Mostly Cloudy
8:50 AM 51.8 °F - 39.2 °F 62% 29.99 in 10.0 mi NE 3.5 mph - N/A   Partly Cloudy
9:10 AM 53.6 °F - 41.0 °F 62% 29.98 in 10.0 mi ENE 3.5 mph - N/A   Mostly Cloudy
9:30 AM 55.4 °F - 39.2 °F 54% 29.98 in 10.0 mi East 4.6 mph - N/A   Overcast
9:50 AM 55.4 °F - 41.0 °F 58% 29.98 in 10.0 mi SE 5.8 mph - N/A   Mostly Cloudy
10:10 AM 60.8 °F - 41.0 °F 48% 29.96 in 10.0 mi South 12.7 mph 20.7 mph N/A   Mostly Cloudy
10:30 AM 59.0 °F - 39.2 °F 48% 29.96 in 10.0 mi South 15.0 mph 24.2 mph N/A   Partly Cloudy
10:50 AM 60.8 °F - 39.2 °F 45% 29.96 in 10.0 mi South 17.3 mph 28.8 mph N/A   Clear
11:10 AM 59.0 °F - 37.4 °F 45% 29.97 in 10.0 mi South 15.0 mph 32.2 mph N/A   Clear
11:30 AM 60.8 °F - 37.4 °F 42% 29.96 in 10.0 mi South 16.1 mph 26.5 mph N/A   Clear
11:50 AM 62.6 °F - 37.4 °F 39% 29.96 in 10.0 mi SSW 10.4 mph 19.6 mph N/A   Clear
12:10 PM 64.4 °F - 37.4 °F 37% 29.96 in 10.0 mi South 15.0 mph 21.9 mph N/A   Clear
12:30 PM 62.6 °F - 37.4 °F 39% 29.96 in 10.0 mi South 19.6 mph 26.5 mph N/A   Partly Cloudy
12:50 PM 64.4 °F - 37.4 °F 37% 29.95 in 10.0 mi SSE 17.3 mph 28.8 mph N/A   Clear
1:10 PM 64.4 °F - 37.4 °F 37% 29.95 in 10.0 mi SSE 15.0 mph 23.0 mph N/A   Clear
1:30 PM 62.6 °F - 35.6 °F 37% 29.94 in 10.0 mi South 15.0 mph 23.0 mph N/A   Scattered Clouds
1:50 PM 62.6 °F - 37.4 °F 39% 29.94 in 10.0 mi SSE 11.5 mph 23.0 mph N/A   Mostly Cloudy
2:10 PM 62.6 °F - 37.4 °F 39% 29.94 in 10.0 mi South 11.5 mph 23.0 mph N/A   Mostly Cloudy
2:30 PM 62.6 °F - 37.4 °F 39% 29.94 in 10.0 mi South 9.2 mph - N/A   Mostly Cloudy
2:50 PM 62.6 °F - 35.6 °F 37% 29.94 in 10.0 mi SSW 11.5 mph 23.0 mph N/A   Mostly Cloudy
3:10 PM 64.4 °F - 37.4 °F 37% 29.93 in 10.0 mi South 16.1 mph 25.3 mph N/A   Scattered Clouds
3:30 PM 62.6 °F - 39.2 °F 42% 29.93 in 10.0 mi South 16.1 mph 26.5 mph N/A   Partly Cloudy
3:50 PM 62.6 °F - 39.2 °F 42% 29.93 in 10.0 mi South 12.7 mph 20.7 mph N/A   Partly Cloudy
4:10 PM 62.6 °F - 39.2 °F 42% 29.93 in 10.0 mi SW 9.2 mph - N/A   Partly Cloudy
4:30 PM 62.6 °F - 39.2 °F 42% 29.93 in 10.0 mi WSW 11.5 mph 18.4 mph N/A   Partly Cloudy
4:50 PM 59.0 °F - 39.2 °F 48% 29.93 in 10.0 mi SW 10.4 mph 20.7 mph N/A   Scattered Clouds
5:10 PM 57.2 °F - 44.6 °F 63% 29.94 in 7.0 mi SSW 12.7 mph 17.3 mph N/A   Partly Cloudy
5:30 PM 57.2 °F - 41.0 °F 55% 29.93 in 10.0 mi SSW 12.7 mph 19.6 mph N/A   Clear
5:50 PM 59.0 °F - 39.2 °F 48% 29.93 in 10.0 mi South 10.4 mph 19.6 mph N/A   Clear
6:10 PM 59.0 °F - 37.4 °F 45% 29.93 in 10.0 mi South 12.7 mph 17.3 mph N/A   Clear
6:30 PM 59.0 °F - 37.4 °F 45% 29.93 in 10.0 mi SSW 13.8 mph 19.6 mph N/A   Clear
6:50 PM 59.0 °F - 33.8 °F 39% 29.93 in 10.0 mi SSW 11.5 mph 20.7 mph N/A   Clear
7:10 PM 57.2 °F - 33.8 °F 41% 29.92 in 10.0 mi South 13.8 mph 21.9 mph N/A   Partly Cloudy
7:30 PM 57.2 °F - 33.8 °F 41% 29.92 in 10.0 mi South 11.5 mph 18.4 mph N/A   Scattered Clouds
7:50 PM 55.4 °F - 33.8 °F 44% 29.93 in 10.0 mi South 9.2 mph 16.1 mph N/A   Partly Cloudy
8:10 PM 55.4 °F - 33.8 °F 44% 29.93 in 10.0 mi South 6.9 mph - N/A   Clear
8:30 PM 55.4 °F - 33.8 °F 44% 29.94 in 10.0 mi SSW 6.9 mph - N/A   Clear
8:50 PM 53.6 °F - 35.6 °F 51% 29.95 in 10.0 mi WSW 3.5 mph - N/A   Scattered Clouds
9:10 PM 50.0 °F - 37.4 °F 62% 29.95 in 10.0 mi WNW 4.6 mph - N/A   Partly Cloudy
9:30 PM 50.0 °F - 35.6 °F 58% 29.96 in 10.0 mi NW 5.8 mph - N/A   Clear
9:50 PM 48.2 °F - 35.6 °F 62% 29.97 in 10.0 mi West 3.5 mph - N/A   Clear
10:10 PM 46.4 °F 44.3 °F 37.4 °F 71% 29.98 in 10.0 mi West 4.6 mph - N/A   Clear
10:30 PM 46.4 °F 45.2 °F 37.4 °F 71% 29.98 in 10.0 mi West 3.5 mph - N/A   Clear
10:50 PM 44.6 °F 41.4 °F 35.6 °F 71% 29.99 in 10.0 mi West 5.8 mph - N/A   Scattered Clouds
11:10 PM 44.6 °F 42.2 °F 35.6 °F 71% 29.98 in 10.0 mi West 4.6 mph - N/A   Mostly Cloudy
11:30 PM 44.6 °F 40.7 °F 35.6 °F 71% 29.98 in 10.0 mi WNW 6.9 mph - N/A   Scattered Clouds
11:50 PM 44.6 °F 40.7 °F 35.6 °F 71% 29.98 in 10.0 mi West 6.9 mph - N/A   Clear